Location: Antin
(43.3330°N, 0.2804°E)
Time: 19:55:21
(UTC+00:00)

SME Rocket - Pass Details

Date: 16 December 2023
Orbit: 550 x 2645 km, 99.9° (Epoch: 20 February)

Event Time Altitude Azimuth Distance (km) Brightness Sun altitude
Rises 17:18:27 0° 125° (SE) 3,889 6.8 -9.6°
Reaches altitude 10° 17:20:50 10° 116° (ESE) 3,165 6.3 -10.0°
Maximum altitude 17:27:33 37° 53° (NE) 2,314 5.5 -11.1°
Drops below altitude 10° 17:37:07 10° 353° (N) 4,584 7.3 -12.8°
Sets 17:41:16 0° 347° (NNW) 5,857 8.0 -13.5°
